KD2GO Weather Reports


time (UTC)temp
C
wind
direction
speed
KPH
gust
KPH
rain 1hr
cm
rain 24hr
cm
rain mn
cm
humidity
%
barometer
mb
20260504004459 10 302 3.2 6.4 0.00 0.00 0.00 48 1011.8
20260504002958 11 323 1.6 8.0 0.00 0.00 0.00 47 1011.5
20260504001458 11 305 3.2 9.7 0.00 0.00 0.00 46 1011.3
20260504000001 12 300 3.2 6.4 0.00 0.00 0.00 44 1011.2
20260503234459 12 291 3.2 8.0 0.00 0.00 0.00 42 1011.0
20260503232959 13 298 4.8 12.9 0.00 0.00 0.00 39 1010.9
20260503231500 13 321 4.8 14.5 0.00 0.00 0.00 40 1010.9
20260503225959 13 262 4.8 14.5 0.00 0.00 0.00 38 1010.9
20260503224459 13 275 11.3 20.9 0.00 0.00 0.00 35 1010.8
20260503222958 14 290 9.7 24.1 0.00 0.00 0.00 34 1010.7
20260503221459 14 290 11.3 30.6 0.00 0.00 0.00 35 1010.7
20260503215959 14 288 9.7 22.5 0.00 0.00 0.00 34 1010.5
20260503213000 14 278 8.0 22.5 0.00 0.00 0.00 33 1010.5
20260503211500 13 333 9.7 22.5 0.00 0.00 0.00 35 1010.5
20260503205959 13 279 11.3 27.4 0.00 0.00 0.00 34 1010.5
20260503204458 13 292 12.9 29.0 0.00 0.00 0.00 34 1010.4
20260503202958 13 352 12.9 30.6 0.00 0.00 0.00 35 1010.6
20260503201458 13 261 9.7 24.1 0.00 0.00 0.00 38 1010.7
20260503194458 13 268 8.0 19.3 0.00 0.00 0.00 37 1011.0
20260503192959 12 287 12.9 29.0 0.00 0.00 0.00 38 1011.1
20260503190001 12 252 14.5 30.6 0.00 0.00 0.00 35 1011.3
20260503184459 12 311 12.9 30.6 0.00 0.00 0.00 36 1011.2
20260503182958 11 231 12.9 25.7 0.00 0.00 0.00 38 1011.3
20260503181500 12 294 14.5 35.4 0.00 0.00 0.00 36 1011.4
20260503174458 11 312 11.3 29.0 0.00 0.00 0.00 38 1011.6
20260503172958 11 269 11.3 22.5 0.00 0.00 0.00 41 1011.7
20260503171458 11 342 9.7 19.3 0.00 0.00 0.00 40 1011.9
20260503081457 6 261 3.2 9.7 0.00 0.03 0.00 61 1010.4
20260503071456 6 77 3.2 9.7 0.00 0.03 0.00 59 1010.2
20260503054458 7 309 1.6 6.4 0.00 0.03 0.00 59 1010.6
20260503052957 7 150 1.6 4.8 0.00 0.03 0.00 58 1010.7
20260503051457 7 283 3.2 11.3 0.00 0.03 0.00 58 1010.8
20260503050001 7 271 3.2 9.7 0.00 0.03 0.00 57 1010.9
20260503044500 7 251 4.8 8.0 0.00 0.03 0.00 57 1011.0
20260503043000 7 264 3.2 8.0 0.00 0.03 0.00 57 1011.3
20260503041500 7 322 3.2 6.4 0.00 0.03 0.00 56 1011.4
20260503035959 7 326 3.2 6.4 0.00 0.03 0.03 55 1011.3
20260503034500 7 234 1.6 4.8 0.00 0.03 0.03 56 1011.3
20260503032959 7 339 0.0 6.4 0.00 0.03 0.03 56 1011.3
20260503031459 8 292 0.0 3.2 0.00 0.03 0.03 54 1011.3
20260503030000 8 300 1.6 9.7 0.00 0.03 0.03 53 1011.4
20260503024459 8 276 3.2 16.1 0.00 0.03 0.03 52 1011.3
20260503022959 8 313 3.2 9.7 0.00 0.03 0.03 52 1011.4
20260503021500 8 311 1.6 8.0 0.00 0.03 0.03 53 1011.4
20260503020002 8 287 1.6 6.4 0.00 0.03 0.03 53 1011.5
20260503014501 9 267 4.8 11.3 0.00 0.03 0.03 50 1011.4
20260503013001 10 304 3.2 9.7 0.00 0.03 0.03 50 1011.4
20260503010001 10 285 4.8 11.3 0.00 0.03 0.03 47 1011.2